Oberbuscherhof, Germany

8:57 AM CET on January 16, 2018 (GMT +0100)
Oberbuscherhof

Weather History for 10400 - September, 2013

Change the Weather History Date:

Saturday, September 28, 2013

  Actual Average Record
Temperature  
Mean Temperature 52 °F -  
Max Temperature 65 °F 58 °F - ()
Min Temperature 38 °F 44 °F - ()
Degree Days  
Heating Degree Days 14    
Growing Degree Days 2 (Base 50)    
Moisture  
Dew Point 43 °F    
Average Humidity 71    
Maximum Humidity 96    
Minimum Humidity 41    
Precipitation  
Precipitation 0.00 in - - ()
Sea Level Pressure  
Sea Level Pressure 29.93 in    
Wind  
Wind Speed 6 mph ()    
Max Wind Speed 15 mph    
Max Gust Speed -    
Visibility 6.2 miles    
Events Fog    
T = Trace of Precipitation, MM = Missing Value Source: Averaged Metar Reports

Daily Weather History Graph

Daily Weather History Graph

Search for Another Location

Airport or City:

Trip Planner

Search our weather history database for the weather conditions in past years. The results will help you decide how hot, cold, wet, or windy it might be!

Date:

Astronomy

Sep. 28, 2013 Rise Set
Actual Time 7:28 AM CEST 7:17 PM CEST
Civil Twilight 6:55 AM CEST 7:50 PM CEST
Nautical Twilight 6:16 AM CEST 8:29 PM CEST
Astronomical Twilight 5:36 AM CEST 9:08 PM CEST
Moon 12:26 AM CEST (9/28) 3:59 PM CEST (9/28)
Length of Visible Light 12h 54m
Length of Day
11h 48m
Last Quarter, 38% of the Moon is Illuminated
Sep 28
Last Quarter
Oct 5
New
Oct 12
First Quarter
Oct 19
Full
Oct 27
Last Quarter

Hourly Weather History & Observations

Time (CEST) Temp. Windchill Dew Point Humidity Pressure Visibility Wind Dir Wind Speed Gust Speed Precip Events Conditions
12:00 AM 49 °F - 42 °F 67% 30.02 in 31 mi NNE 4.5 mph - -   Clear
12:20 AM 48.2 °F - 41.0 °F 76% 30.01 in - NE 4.6 mph - N/A   Clear
12:50 AM 48.2 °F - 41.0 °F 76% 29.98 in - North 2.3 mph - N/A   Clear
1:00 AM 46 °F - 41 °F 77% 30.02 in 31 mi NNE 2.2 mph - -   Clear
1:20 AM 44.6 °F - 41.0 °F 87% 29.98 in - North 2.3 mph - N/A   Clear
1:50 AM 44.6 °F 43.1 °F 39.2 °F 81% 29.98 in - NNE 3.5 mph - N/A   Clear
2:00 AM 42 °F - 40 °F 92% 30.01 in 31 mi NNW 2.2 mph - -   Clear
2:20 AM 42.8 °F 40.1 °F 41.0 °F 93% 29.98 in - NNE 4.6 mph - N/A   Clear
2:50 AM 42.8 °F 40.1 °F 39.2 °F 87% 29.98 in - NNE 4.6 mph - N/A   Clear
3:00 AM 42 °F - 40 °F 91% 30.01 in 31 mi North 2.2 mph - -   Clear
3:20 AM 42.8 °F 41.1 °F 39.2 °F 87% 29.98 in 6.2 mi NNE 3.5 mph - N/A Fog Shallow Fog
3:50 AM 41.0 °F 39.0 °F 39.2 °F 93% 29.98 in 6.2 mi ENE 3.5 mph - N/A Fog Shallow Fog
4:00 AM 41 °F - 40 °F 96% 30.00 in 31 mi NE 4.5 mph - -   Clear
4:20 AM 41.0 °F 38.0 °F 39.2 °F 93% 29.98 in 6.2 mi NE 4.6 mph - N/A Fog Shallow Fog
4:50 AM 41.0 °F 38.0 °F 37.4 °F 87% 29.95 in - ENE 4.6 mph - N/A   Clear
5:20 AM 39.2 °F 37.0 °F 35.6 °F 87% 29.98 in 6.2 mi NNE 3.5 mph - N/A Fog Shallow Fog
5:50 AM 39.2 °F 35.0 °F 37.4 °F 93% 29.95 in 6.2 mi NE 5.8 mph - N/A Fog Shallow Fog
6:20 AM 39.2 °F 35.0 °F 37.4 °F 93% 29.95 in - NE 5.8 mph - N/A   Clear
6:50 AM 39.2 °F 35.0 °F 37.4 °F 93% 29.95 in - NE 5.8 mph - N/A   Clear
7:00 AM 39 °F - 38 °F 96% 29.96 in 31 mi NNE 4.5 mph - -   Scattered Clouds
7:20 AM 39.2 °F 35.9 °F 37.4 °F 93% 29.95 in - NE 4.6 mph - N/A   Clear
7:50 AM 39.2 °F 35.9 °F 37.4 °F 93% 29.95 in - NNE 4.6 mph - N/A   Clear
8:00 AM 39 °F - 38 °F 95% 29.96 in 31 mi NNE 2.2 mph - -   Scattered Clouds
8:20 AM 39.2 °F 35.9 °F 37.4 °F 93% 29.95 in - NNE 4.6 mph - N/A   Clear
8:50 AM 42.8 °F 39.3 °F 41.0 °F 93% 29.95 in - NE 5.8 mph - N/A   Clear
9:00 AM 43 °F - 41 °F 91% 29.96 in 31 mi NE 2.2 mph - -   Scattered Clouds
9:20 AM 46.4 °F 44.3 °F 42.8 °F 87% 29.95 in - NNE 4.6 mph - N/A   Clear
9:50 AM 50.0 °F - 42.8 °F 76% 29.95 in - NNE 4.6 mph - N/A   Clear
10:00 AM 50 °F - 43 °F 68% 29.96 in 31 mi NE 2.2 mph - -   Scattered Clouds
10:20 AM 51.8 °F - 44.6 °F 76% 29.95 in - NNE 3.5 mph - N/A   Clear
10:50 AM 57.2 °F - 46.4 °F 67% 29.95 in - North 3.5 mph - N/A   Clear
11:20 AM 60.8 °F - 44.6 °F 55% 29.95 in - East 10.4 mph - N/A   Clear
11:50 AM 60.8 °F - 44.6 °F 55% 29.95 in - East 10.4 mph - N/A   Clear
12:00 PM 61 °F - 45 °F 44% 29.95 in 31 mi East 8.9 mph - -   Clear
12:20 PM 62.6 °F - 46.4 °F 55% 29.92 in - East 8.1 mph - N/A   Clear
12:50 PM 64.4 °F - 46.4 °F 52% 29.92 in - East 9.2 mph - N/A   Clear
1:00 PM 64 °F - 47 °F 43% 29.94 in 31 mi East 8.9 mph - -   Clear
1:20 PM 64.4 °F - 44.6 °F 49% 29.92 in - ENE 8.1 mph - N/A   Clear
1:50 PM 64.4 °F - 46.4 °F 52% 29.92 in - ENE 9.2 mph - N/A   Clear
2:00 PM 64 °F - 46 °F 41% 29.92 in 31 mi ENE 8.9 mph - -   Clear
2:20 PM 64.4 °F - 46.4 °F 52% 29.89 in - NE 9.2 mph - N/A   Clear
2:50 PM 64.4 °F - 48.2 °F 56% 29.89 in - NNE 11.5 mph - N/A   Clear
3:00 PM 65 °F - 48 °F 44% 29.91 in 31 mi NE 11.2 mph - -   Clear
3:20 PM 64.4 °F - 46.4 °F 52% 29.89 in - NE 12.7 mph - N/A   Clear
3:50 PM 62.6 °F - 48.2 °F 59% 29.89 in - NE 15.0 mph - N/A   Clear
4:00 PM 62 °F - 47 °F 49% 29.90 in 31 mi NE 13.4 mph - -   Scattered Clouds
4:20 PM 62.6 °F - 48.2 °F 59% 29.89 in - NE 13.8 mph - N/A   Clear
4:50 PM 62.6 °F - 48.2 °F 59% 29.86 in - NE 11.5 mph - N/A   Clear
5:20 PM 62.6 °F - 46.4 °F 55% 29.86 in - NE 15.0 mph - N/A   Clear
5:50 PM 62.6 °F - 46.4 °F 55% 29.86 in - NE 13.8 mph - N/A   Clear
6:00 PM 62 °F - 46 °F 44% 29.87 in 28 mi NE 13.4 mph - -   Scattered Clouds
6:20 PM 60.8 °F - 46.4 °F 59% 29.86 in - NE 11.5 mph - N/A   Clear
6:50 PM 60.8 °F - 46.4 °F 59% 29.86 in - NE 11.5 mph - N/A   Clear
7:00 PM 60 °F - 46 °F 49% 29.87 in 28 mi NE 11.2 mph - -   Partly Cloudy
7:20 PM 59.0 °F - 44.6 °F 59% 29.86 in - NE 10.4 mph - N/A   Clear
7:50 PM 57.2 °F - 44.6 °F 63% 29.86 in - NE 10.4 mph - N/A   Clear
8:00 PM 56 °F - 44 °F 54% 29.88 in 28 mi NE 8.9 mph - -   Scattered Clouds
8:20 PM 53.6 °F - 42.8 °F 67% 29.86 in - NE 10.4 mph - N/A   Clear
8:50 PM 53.6 °F - 42.8 °F 67% 29.86 in - ENE 10.4 mph - N/A   Clear
9:00 PM 52 °F - 44 °F 64% 29.89 in 25 mi ENE 8.9 mph - -   Scattered Clouds
9:20 PM 51.8 °F - 42.8 °F 71% 29.86 in - NE 9.2 mph - N/A   Clear
9:50 PM 51.8 °F - 42.8 °F 71% 29.89 in - NE 9.2 mph - N/A   Clear
10:00 PM 50 °F - 43 °F 69% 29.89 in 25 mi ENE 6.7 mph - -   Scattered Clouds
10:20 PM 51.8 °F - 42.8 °F 71% 29.89 in - NE 9.2 mph - N/A   Clear
10:50 PM 51.8 °F - 42.8 °F 71% 29.86 in - NE 8.1 mph - N/A   Clear
11:20 PM 51.8 °F - 41.0 °F 67% 29.86 in - NE 8.1 mph - N/A   Clear
11:50 PM 51.8 °F - 41.0 °F 67% 29.86 in - NE 8.1 mph - N/A   Clear